START_TIME,STEP,MOV.,M34,t_acc.,L5,t_acc.,L18,t_acc.,L14,t_acc.
1979-07-13 12:00:25.030 ,0,0,0.,12.0,0.,12.0,0.,12.0,0.,12.0
1979-07-13 12:00:37.030 ,0,0,0.,12.0,0.,12.0,0.,12.0,0.,12.0
1979-07-13 12:00:49.030 ,1,1,0.,12.0,0.,12.0,0.,12.0,0.,12.0
1979-07-13 12:01:01.030 ,1,1,0.,12.0,0.,12.0,0.,12.0,0.,12.0
1979-07-13 12:01:13.030 ,1,0,0.,12.0,0.,12.0,0.,12.0,1.,12.0
1979-07-13 12:01:25.030 ,1,0,0.,12.0,0.,12.0,0.,12.0,0.,12.0
1979-07-13 12:01:37.030 ,2,1,0.,12.0,0.,12.0,0.,12.0,0.,12.0
1979-07-13 12:01:49.030 ,2,1,1.,12.0,0.,12.0,0.,12.0,0.,12.0
1979-07-13 12:02:01.030 ,2,0,0.,12.0,0.,12.0,0.,12.0,0.,12.0
1979-07-13 12:02:13.030 ,2,0,0.,12.0,0.,12.0,0.,12.0,1.,12.0
1979-07-13 12:02:25.030 ,3,1,0.,12.0,0.,12.0,0.,12.0,0.,12.0
1979-07-13 12:02:37.030 ,3,1,0.,12.0,0.,12.0,0.,12.0,1.,12.0
1979-07-13 12:02:49.030 ,3,0,0.,12.0,0.,12.0,0.,12.0,0.,12.0
1979-07-13 12:03:01.030 ,3,0,0.,12.0,0.,12.0,0.,12.0,0.,12.0
1979-07-13 12:03:13.030 ,4,1,0.,12.0,0.,12.0,0.,12.0,0.,12.0
1979-07-13 12:03:25.030 ,4,1,0.,12.0,0.,12.0,0.,12.0,0.,12.0
1979-07-13 12:03:37.030 ,4,0,0.,12.0,0.,12.0,0.,12.0,0.,12.0
1979-07-13 12:03:49.030 ,4,0,0.,12.0,0.,12.0,0.,12.0,1.,12.0
1979-07-13 12:04:01.030 ,5,1,0.,12.0,0.,12.0,0.,12.0,1.,12.0
1979-07-13 12:04:13.030 ,5,1,0.,12.0,0.,12.0,0.,12.0,0.,12.0
1979-07-13 12:04:25.030 ,5,0,0.,12.0,0.,12.0,0.,12.0,0.,12.0
1979-07-13 12:04:37.030 ,5,0,0.,12.0,0.,12.0,0.,12.0,0.,12.0
1979-07-13 12:04:49.030 ,6,1,0.,12.0,0.,12.0,0.,12.0,0.,12.0
1979-07-13 12:05:01.030 ,6,1,0.,12.0,0.,12.0,0.,12.0,0.,12.0
1979-07-13 12:05:13.030 ,6,0,0.,12.0,0.,12.0,0.,12.0,0.,12.0
1979-07-13 12:05:25.030 ,6,0,0.,12.0,0.,12.0,0.,12.0,0.,12.0
1979-07-13 12:05:37.030 ,7,1,0.,12.0,0.,12.0,0.,12.0,0.,12.0
1979-07-13 12:05:49.030 ,7,1,0.,12.0,0.,12.0,0.,12.0,0.,12.0
1979-07-13 12:06:01.030 ,7,0,0.,12.0,0.,12.0,0.,12.0,0.,12.0
1979-07-13 12:06:13.030 ,7,0,0.,12.0,0.,12.0,0.,12.0,0.,12.0
1979-07-13 12:06:25.030 ,7,1,0.,12.0,0.,12.0,0.,12.0,0.,12.0
1979-07-13 12:06:37.030 ,7,1,0.,12.0,0.,12.0,0.,12.0,0.,12.0
1979-07-13 12:06:49.030 ,7,0,0.,12.0,0.,12.0,0.,12.0,0.,12.0
1979-07-13 12:07:01.030 ,7,0,0.,12.0,0.,12.0,0.,12.0,0.,12.0
1979-07-13 12:07:13.030 ,6,1,0.,12.0,0.,12.0,0.,12.0,0.,12.0
1979-07-13 12:07:25.030 ,6,1,0.,12.0,0.,12.0,0.,12.0,0.,12.0
1979-07-13 12:07:37.030 ,6,0,0.,12.0,0.,12.0,0.,12.0,0.,12.0
1979-07-13 12:07:49.030 ,6,0,0.,12.0,0.,12.0,0.,12.0,0.,12.0
1979-07-13 12:08:01.030 ,5,1,0.,12.0,0.,12.0,0.,12.0,0.,12.0
1979-07-13 12:08:13.030 ,5,1,0.,12.0,0.,12.0,0.,12.0,0.,12.0
1979-07-13 12:08:25.030 ,5,0,0.,12.0,0.,12.0,0.,12.0,0.,12.0
1979-07-13 12:08:37.030 ,5,0,0.,12.0,0.,12.0,0.,12.0,0.,12.0
1979-07-13 12:08:49.030 ,4,1,0.,12.0,0.,12.0,0.,12.0,0.,12.0
1979-07-13 12:09:01.030 ,4,1,1.,12.0,0.,12.0,0.,12.0,0.,12.0
1979-07-13 12:09:13.030 ,4,0,0.,12.0,0.,12.0,0.,12.0,0.,12.0
1979-07-13 12:09:25.030 ,4,0,0.,12.0,0.,12.0,0.,12.0,0.,12.0
1979-07-13 12:09:37.030 ,3,1,0.,12.0,0.,12.0,0.,12.0,0.,12.0
1979-07-13 12:09:49.030 ,3,1,0.,12.0,0.,12.0,0.,12.0,0.,12.0
1979-07-13 12:10:01.030 ,3,0,0.,12.0,0.,12.0,0.,12.0,0.,12.0
1979-07-13 12:10:13.030 ,3,0,0.,12.0,0.,12.0,0.,12.0,1.,12.0
1979-07-13 12:10:26.830 ,2,1,1.,12.0,0.,12.0,0.,12.0,0.,12.0
1979-07-13 12:10:38.830 ,2,1,0.,12.0,0.,12.0,0.,12.0,0.,12.0
1979-07-13 12:10:49.030 ,2,0,0.,12.0,0.,12.0,0.,12.0,0.,12.0
1979-07-13 12:11:01.030 ,2,0,0.,12.0,0.,12.0,0.,12.0,0.,12.0
1979-07-13 12:11:13.030 ,1,1,0.,12.0,0.,12.0,0.,12.0,0.,12.0
1979-07-13 12:11:25.030 ,1,1,0.,12.0,0.,12.0,0.,12.0,0.,12.0
1979-07-13 12:11:37.030 ,1,0,0.,12.0,0.,12.0,0.,12.0,0.,12.0
1979-07-13 12:11:49.030 ,1,0,0.,12.0,0.,12.0,0.,12.0,0.,12.0
1979-07-13 12:12:01.030 ,0,1,0.,12.0,0.,12.0,0.,12.0,0.,12.0
1979-07-13 12:12:13.030 ,0,1,0.,12.0,0.,12.0,0.,12.0,0.,12.0
1979-07-13 12:12:25.030 ,0,0,0.,12.0,0.,12.0,0.,12.0,0.,12.0
1979-07-13 12:12:37.030 ,0,0,0.,12.0,0.,12.0,0.,12.0,0.,12.0
1979-07-13 12:12:49.030 ,0,1,0.,12.0,0.,12.0,0.,12.0,0.,12.0
1979-07-13 12:13:01.030 ,0,1,0.,12.0,0.,12.0,0.,12.0,0.,12.0
1979-07-13 12:13:13.030 ,0,0,0.,12.0,0.,12.0,0.,12.0,0.,12.0
1979-07-13 12:13:25.030 ,0,0,1.,12.0,0.,12.0,0.,12.0,0.,12.0
1979-07-13 12:13:37.030 ,1,1,0.,12.0,0.,12.0,0.,12.0,0.,12.0
1979-07-13 12:13:49.030 ,1,1,0.,12.0,0.,12.0,0.,12.0,0.,12.0
1979-07-13 12:14:01.030 ,1,0,0.,12.0,0.,12.0,0.,12.0,0.,12.0
1979-07-13 12:14:13.030 ,1,0,0.,12.0,0.,12.0,0.,12.0,0.,12.0
1979-07-13 12:14:25.030 ,2,1,0.,12.0,0.,12.0,0.,12.0,0.,12.0
1979-07-13 12:14:37.030 ,2,1,0.,12.0,0.,12.0,0.,12.0,0.,12.0
1979-07-13 12:14:49.030 ,0,0,0.,12.0,0.,12.0,0.,12.0,0.,12.0
1979-07-13 12:15:01.030 ,0,0,0.,12.0,0.,12.0,0.,12.0,0.,12.0
1979-07-13 12:15:13.030 ,3,1,0.,12.0,0.,12.0,0.,12.0,0.,12.0
1979-07-13 12:15:25.030 ,3,1,0.,12.0,0.,12.0,0.,12.0,0.,12.0
1979-07-13 12:15:37.030 ,3,0,0.,12.0,0.,12.0,0.,12.0,1.,12.0
1979-07-13 12:15:49.030 ,3,0,0.,12.0,0.,12.0,0.,12.0,0.,12.0
1979-07-13 12:16:01.030 ,4,1,0.,12.0,0.,12.0,0.,12.0,0.,12.0
1979-07-13 12:16:13.030 ,4,1,0.,12.0,0.,12.0,0.,12.0,0.,12.0
1979-07-13 12:16:25.030 ,4,0,0.,12.0,0.,12.0,0.,12.0,0.,12.0
1979-07-13 12:16:37.030 ,4,0,0.,12.0,0.,12.0,0.,12.0,0.,12.0
1979-07-13 12:16:49.030 ,5,1,0.,12.0,0.,12.0,0.,12.0,0.,12.0
1979-07-13 12:17:01.030 ,5,1,1.,12.0,0.,12.0,0.,12.0,0.,12.0
1979-07-13 12:17:13.030 ,5,0,1.,12.0,0.,12.0,0.,12.0,0.,12.0
1979-07-13 12:17:25.030 ,5,0,0.,12.0,0.,12.0,0.,12.0,0.,12.0
1979-07-13 12:17:37.030 ,6,1,0.,12.0,0.,12.0,0.,12.0,0.,12.0
1979-07-13 12:17:49.030 ,6,1,0.,12.0,0.,12.0,0.,12.0,0.,12.0
1979-07-13 12:18:01.030 ,6,0,0.,12.0,0.,12.0,0.,12.0,0.,12.0
1979-07-13 12:18:13.030 ,6,0,1.,12.0,0.,12.0,0.,12.0,0.,12.0
1979-07-13 12:18:25.030 ,7,0,0.,12.0,0.,12.0,0.,12.0,0.,12.0
1979-07-13 12:18:37.030 ,7,0,0.,12.0,0.,12.0,0.,12.0,0.,12.0
1979-07-13 12:18:49.030 ,7,0,0.,12.0,0.,12.0,0.,12.0,0.,12.0
1979-07-13 12:19:01.030 ,7,0,0.,12.0,0.,12.0,0.,12.0,0.,12.0
1979-07-13 12:19:13.030 ,4,1,0.,12.0,0.,12.0,0.,12.0,0.,12.0
1979-07-13 12:19:25.030 ,4,1,0.,12.0,0.,12.0,0.,12.0,1.,12.0
1979-07-13 12:19:37.030 ,0,1,0.,12.0,0.,12.0,0.,12.0,0.,12.0
1979-07-13 12:19:49.030 ,0,1,0.,12.0,0.,12.0,0.,12.0,0.,12.0
1979-07-13 12:20:01.030 ,3,1,0.,12.0,0.,12.0,0.,12.0,0.,12.0
1979-07-13 12:20:13.030 ,3,1,0.,12.0,0.,12.0,0.,12.0,0.,12.0
1979-07-13 12:20:25.030 ,7,1,0.,12.0,0.,12.0,0.,12.0,0.,12.0
1979-07-13 12:20:37.030 ,7,1,0.,12.0,0.,12.0,0.,12.0,0.,12.0
1979-07-13 12:20:49.030 ,4,1,0.,12.0,0.,12.0,0.,12.0,0.,12.0
1979-07-13 12:21:01.030 ,4,1,0.,12.0,0.,12.0,0.,12.0,0.,12.0
1979-07-13 12:21:13.030 ,0,1,0.,12.0,0.,12.0,0.,12.0,0.,12.0
1979-07-13 12:21:25.030 ,0,1,0.,12.0,0.,12.0,0.,12.0,0.,12.0
1979-07-13 12:21:37.030 ,3,1,0.,12.0,0.,12.0,0.,12.0,0.,12.0
1979-07-13 12:21:49.030 ,3,1,0.,12.0,0.,12.0,0.,12.0,0.,12.0
1979-07-13 12:22:01.030 ,7,1,0.,12.0,0.,12.0,0.,12.0,0.,12.0
1979-07-13 12:22:13.030 ,7,1,0.,12.0,0.,12.0,0.,12.0,0.,12.0
1979-07-13 12:22:25.030 ,4,1,0.,12.0,0.,12.0,0.,12.0,0.,12.0
1979-07-13 12:22:37.030 ,4,1,0.,12.0,0.,12.0,0.,12.0,0.,12.0
1979-07-13 12:22:49.030 ,0,1,0.,12.0,0.,12.0,0.,12.0,0.,12.0
1979-07-13 12:23:01.030 ,0,1,0.,12.0,0.,12.0,0.,12.0,0.,12.0
1979-07-13 12:23:13.030 ,3,1,0.,12.0,0.,12.0,0.,12.0,1.,12.0
1979-07-13 12:23:25.030 ,3,1,0.,12.0,0.,12.0,0.,12.0,0.,12.0
1979-07-13 12:23:37.030 ,7,1,0.,12.0,0.,12.0,0.,12.0,0.,12.0
1979-07-13 12:23:49.030 ,7,1,0.,12.0,0.,12.0,0.,12.0,0.,12.0
1979-07-13 12:24:01.030 ,4,1,0.,12.0,0.,12.0,0.,12.0,0.,12.0
1979-07-13 12:24:13.030 ,4,1,0.,12.0,0.,12.0,0.,12.0,0.,12.0
1979-07-13 12:24:25.030 ,0,1,0.,12.0,0.,12.0,0.,12.0,0.,12.0
1979-07-13 12:24:37.030 ,0,1,0.,12.0,0.,12.0,0.,12.0,0.,12.0
1979-07-13 12:24:49.030 ,3,1,0.,12.0,0.,12.0,0.,12.0,0.,12.0
1979-07-13 12:25:01.030 ,3,1,0.,12.0,0.,12.0,0.,12.0,0.,12.0
1979-07-13 12:25:13.030 ,7,1,0.,12.0,0.,12.0,0.,12.0,0.,12.0
1979-07-13 12:25:25.030 ,7,1,0.,12.0,0.,12.0,0.,12.0,0.,12.0
1979-07-13 12:25:37.030 ,4,1,0.,12.0,0.,12.0,0.,12.0,0.,12.0
1979-07-13 12:25:49.030 ,4,1,0.,12.0,0.,12.0,0.,12.0,0.,12.0
1979-07-13 12:26:01.030 ,0,1,0.,12.0,0.,12.0,0.,12.0,0.,12.0
1979-07-13 12:26:13.030 ,0,1,0.,12.0,0.,12.0,0.,12.0,0.,12.0
1979-07-13 12:26:25.030 ,3,1,0.,12.0,0.,12.0,0.,12.0,0.,12.0
1979-07-13 12:26:37.030 ,3,1,0.,12.0,0.,12.0,0.,12.0,0.,12.0
1979-07-13 12:26:49.030 ,7,1,0.,12.0,0.,12.0,0.,12.0,0.,12.0
1979-07-13 12:27:01.030 ,7,1,0.,12.0,0.,12.0,0.,12.0,1.,12.0
1979-07-13 12:27:13.030 ,4,1,0.,12.0,0.,12.0,0.,12.0,1.,12.0
1979-07-13 12:27:25.030 ,4,1,0.,12.0,0.,12.0,0.,12.0,0.,12.0
1979-07-13 12:27:37.030 ,0,1,0.,12.0,0.,12.0,0.,12.0,0.,12.0
1979-07-13 12:27:49.030 ,0,1,0.,12.0,0.,12.0,0.,12.0,0.,12.0
1979-07-13 12:28:01.030 ,3,1,0.,12.0,0.,12.0,0.,12.0,0.,12.0
1979-07-13 12:28:13.030 ,3,1,0.,12.0,0.,12.0,0.,12.0,0.,12.0
1979-07-13 12:28:25.030 ,7,1,0.,12.0,0.,12.0,0.,12.0,0.,12.0
1979-07-13 12:28:37.030 ,7,1,0.,12.0,0.,12.0,0.,12.0,0.,12.0
1979-07-13 12:28:49.030 ,4,1,0.,12.0,0.,12.0,0.,12.0,0.,12.0
1979-07-13 12:29:01.030 ,4,1,0.,12.0,0.,12.0,0.,12.0,0.,12.0
1979-07-13 12:29:13.030 ,0,1,0.,12.0,0.,12.0,0.,12.0,0.,12.0
1979-07-13 12:29:25.030 ,0,1,0.,12.0,0.,12.0,0.,12.0,0.,12.0
1979-07-13 12:29:37.030 ,0,0,0.,12.0,0.,12.0,0.,12.0,0.,12.0
1979-07-13 12:29:49.030 ,0,0,0.,12.0,0.,12.0,0.,12.0,0.,12.0
1979-07-13 12:30:01.030 ,0,0,0.,12.0,0.,12.0,0.,12.0,0.,12.0
1979-07-13 12:30:13.030 ,0,0,0.,12.0,0.,12.0,0.,12.0,0.,12.0
1979-07-13 12:30:25.030 ,5,1,0.,12.0,0.,12.0,0.,12.0,0.,12.0
1979-07-13 12:30:37.030 ,5,1,0.,12.0,0.,12.0,0.,12.0,0.,12.0
1979-07-13 12:30:49.030 ,5,0,0.,12.0,0.,12.0,0.,12.0,0.,12.0
1979-07-13 12:31:01.030 ,5,0,0.,12.0,0.,12.0,0.,12.0,0.,12.0
1979-07-13 12:31:13.030 ,4,1,0.,12.0,0.,12.0,0.,12.0,0.,12.0
1979-07-13 12:31:25.030 ,4,1,0.,12.0,0.,12.0,0.,12.0,0.,12.0
1979-07-13 12:31:37.030 ,4,0,0.,12.0,0.,12.0,0.,12.0,0.,12.0
1979-07-13 12:31:49.030 ,4,0,0.,12.0,0.,12.0,0.,12.0,0.,12.0
1979-07-13 12:32:01.030 ,3,1,0.,12.0,0.,12.0,0.,12.0,0.,12.0
1979-07-13 12:32:13.030 ,3,1,0.,12.0,0.,12.0,0.,12.0,0.,12.0
1979-07-13 12:32:25.030 ,3,0,0.,12.0,0.,12.0,0.,12.0,0.,12.0
1979-07-13 12:32:37.030 ,3,0,0.,12.0,0.,12.0,0.,12.0,0.,12.0
1979-07-13 12:32:49.030 ,2,1,0.,12.0,0.,12.0,0.,12.0,0.,12.0
1979-07-13 12:33:01.030 ,2,1,0.,12.0,0.,12.0,0.,12.0,0.,12.0
1979-07-13 12:33:13.030 ,2,0,0.,12.0,0.,12.0,0.,12.0,0.,12.0
1979-07-13 12:33:25.030 ,2,0,0.,12.0,0.,12.0,0.,12.0,0.,12.0
1979-07-13 12:33:37.030 ,1,1,0.,12.0,0.,12.0,0.,12.0,0.,12.0
1979-07-13 12:33:49.030 ,1,1,0.,12.0,0.,12.0,0.,12.0,0.,12.0
1979-07-13 12:34:01.030 ,1,0,0.,12.0,0.,12.0,0.,12.0,0.,12.0
1979-07-13 12:34:13.030 ,1,0,0.,12.0,0.,12.0,0.,12.0,0.,12.0
1979-07-13 12:34:25.030 ,0,1,0.,12.0,0.,12.0,0.,12.0,0.,12.0
1979-07-13 12:34:37.030 ,0,1,0.,12.0,0.,12.0,0.,12.0,0.,12.0
1979-07-13 12:34:49.030 ,0,0,0.,12.0,0.,12.0,0.,12.0,0.,12.0
1979-07-13 12:35:01.030 ,0,0,0.,12.0,0.,12.0,0.,12.0,0.,12.0
1979-07-13 12:35:13.030 ,0,1,0.,12.0,0.,12.0,0.,12.0,1.,12.0
1979-07-13 12:35:25.030 ,0,1,0.,12.0,0.,12.0,0.,12.0,1.,12.0
1979-07-13 12:35:37.030 ,0,0,1.,12.0,0.,12.0,0.,12.0,0.,12.0
1979-07-13 12:35:49.030 ,0,0,0.,12.0,0.,12.0,0.,12.0,0.,12.0
1979-07-13 12:36:01.030 ,1,1,0.,12.0,0.,12.0,0.,12.0,0.,12.0
1979-07-13 12:36:13.030 ,1,1,0.,12.0,0.,12.0,0.,12.0,0.,12.0
1979-07-13 12:36:25.030 ,1,0,1.,12.0,0.,12.0,0.,12.0,0.,12.0
1979-07-13 12:36:37.030 ,1,0,0.,12.0,0.,12.0,0.,12.0,0.,12.0
1979-07-13 12:36:49.030 ,2,1,0.,12.0,0.,12.0,0.,12.0,0.,12.0
1979-07-13 12:37:01.030 ,2,1,0.,12.0,0.,12.0,0.,12.0,0.,12.0
1979-07-13 12:37:13.030 ,2,0,0.,12.0,0.,12.0,0.,12.0,0.,12.0
1979-07-13 12:37:25.030 ,2,0,0.,12.0,0.,12.0,0.,12.0,0.,12.0
1979-07-13 12:37:37.030 ,3,1,0.,12.0,0.,12.0,0.,12.0,0.,12.0
1979-07-13 12:37:49.030 ,3,1,0.,12.0,0.,12.0,0.,12.0,0.,12.0
1979-07-13 12:38:01.030 ,3,0,0.,12.0,0.,12.0,0.,12.0,0.,12.0
1979-07-13 12:38:13.030 ,3,0,0.,12.0,0.,12.0,0.,12.0,0.,12.0
1979-07-13 12:38:25.030 ,4,1,0.,12.0,0.,12.0,0.,12.0,0.,12.0
1979-07-13 12:38:37.030 ,4,1,0.,12.0,0.,12.0,0.,12.0,0.,12.0
1979-07-13 12:38:49.030 ,4,0,1.,12.0,0.,12.0,0.,12.0,0.,12.0
1979-07-13 12:39:01.030 ,4,0,1.,12.0,0.,12.0,0.,12.0,0.,12.0
1979-07-13 12:39:13.030 ,5,1,0.,12.0,0.,12.0,0.,12.0,0.,12.0
1979-07-13 12:39:25.030 ,5,1,0.,12.0,0.,12.0,0.,12.0,0.,12.0
1979-07-13 12:39:37.030 ,0,0,0.,12.0,0.,12.0,0.,12.0,0.,12.0
1979-07-13 12:39:49.030 ,0,0,0.,12.0,0.,12.0,0.,12.0,0.,12.0
1979-07-13 12:40:19.630 ,0,0,,0,,0,,0,,0
1979-07-13 12:40:31.630 ,0,0,,0,,0,,0,,0
1979-07-13 12:40:25.030 ,0,0,0.,12.0,0.,12.0,0.,12.0,0.,12.0
1979-07-13 12:40:37.030 ,0,0,0.,12.0,0.,12.0,0.,12.0,0.,12.0
1979-07-13 12:40:49.030 ,7,1,2.,12.0,0.,12.0,0.,12.0,0.,12.0
1979-07-13 12:41:01.030 ,7,1,0.,12.0,0.,12.0,0.,12.0,0.,12.0
1979-07-13 12:41:13.030 ,7,0,0.,12.0,0.,12.0,0.,12.0,0.,12.0
1979-07-13 12:41:25.030 ,7,0,0.,12.0,0.,12.0,0.,12.0,0.,12.0
1979-07-13 12:41:37.030 ,7,1,0.,12.0,0.,12.0,0.,12.0,0.,12.0
1979-07-13 12:41:49.030 ,7,1,0.,12.0,0.,12.0,0.,12.0,0.,12.0
1979-07-13 12:42:01.030 ,7,0,0.,12.0,0.,12.0,0.,12.0,1.,12.0
1979-07-13 12:42:13.030 ,7,0,0.,12.0,0.,12.0,0.,12.0,0.,12.0
1979-07-13 12:42:25.030 ,6,1,0.,12.0,0.,12.0,0.,12.0,0.,12.0
1979-07-13 12:42:37.030 ,6,1,0.,12.0,0.,12.0,0.,12.0,0.,12.0
1979-07-13 12:42:49.030 ,6,0,0.,12.0,0.,12.0,0.,12.0,0.,12.0
1979-07-13 12:43:01.030 ,6,0,0.,12.0,0.,12.0,0.,12.0,0.,12.0
1979-07-13 12:43:13.030 ,5,1,0.,12.0,0.,12.0,0.,12.0,0.,12.0
1979-07-13 12:43:25.030 ,5,1,0.,12.0,0.,12.0,0.,12.0,0.,12.0
1979-07-13 12:43:37.030 ,5,0,1.,12.0,0.,12.0,0.,12.0,0.,12.0
1979-07-13 12:43:49.030 ,5,0,0.,12.0,0.,12.0,0.,12.0,0.,12.0
1979-07-13 12:44:01.030 ,4,1,0.,12.0,0.,12.0,0.,12.0,0.,12.0
1979-07-13 12:44:13.030 ,4,1,0.,12.0,0.,12.0,0.,12.0,0.,12.0
1979-07-13 12:44:25.030 ,4,0,0.,12.0,0.,12.0,0.,12.0,0.,12.0
1979-07-13 12:44:37.030 ,4,0,0.,12.0,0.,12.0,0.,12.0,0.,12.0
1979-07-13 12:44:49.030 ,3,1,0.,12.0,0.,12.0,0.,12.0,0.,12.0
1979-07-13 12:45:01.030 ,3,1,0.,12.0,0.,12.0,0.,12.0,0.,12.0
1979-07-13 12:45:13.030 ,3,0,1.,12.0,0.,12.0,0.,12.0,0.,12.0
1979-07-13 12:45:25.030 ,3,0,0.,12.0,0.,12.0,0.,12.0,0.,12.0
1979-07-13 12:45:37.030 ,2,1,0.,12.0,0.,12.0,0.,12.0,0.,12.0
1979-07-13 12:45:49.030 ,2,1,0.,12.0,0.,12.0,0.,12.0,0.,12.0
1979-07-13 12:46:01.030 ,2,0,0.,12.0,0.,12.0,0.,12.0,0.,12.0
1979-07-13 12:46:13.030 ,2,0,1.,12.0,0.,12.0,0.,12.0,0.,12.0
1979-07-13 12:46:25.030 ,1,1,0.,12.0,0.,12.0,0.,12.0,0.,12.0
1979-07-13 12:46:37.030 ,1,1,0.,12.0,0.,12.0,0.,12.0,0.,12.0
1979-07-13 12:46:49.030 ,1,0,0.,12.0,0.,12.0,0.,12.0,0.,12.0
1979-07-13 12:47:01.030 ,1,0,0.,12.0,0.,12.0,0.,12.0,1.,12.0
1979-07-13 12:47:13.030 ,0,1,0.,12.0,0.,12.0,0.,12.0,0.,12.0
1979-07-13 12:47:25.030 ,0,1,0.,12.0,0.,12.0,0.,12.0,1.,12.0
1979-07-13 12:47:37.030 ,0,0,0.,12.0,0.,12.0,0.,12.0,0.,12.0
1979-07-13 12:47:49.030 ,0,0,0.,12.0,0.,12.0,0.,12.0,0.,12.0
1979-07-13 12:48:01.030 ,0,1,0.,12.0,0.,12.0,0.,12.0,0.,12.0
1979-07-13 12:48:13.030 ,0,1,0.,12.0,0.,12.0,0.,12.0,0.,12.0
1979-07-13 12:48:25.030 ,0,0,0.,12.0,0.,12.0,0.,12.0,0.,12.0
1979-07-13 12:48:37.030 ,0,0,1.,12.0,0.,12.0,0.,12.0,0.,12.0
1979-07-13 12:48:49.030 ,1,1,0.,12.0,0.,12.0,0.,12.0,0.,12.0
1979-07-13 12:49:01.030 ,1,1,0.,12.0,0.,12.0,0.,12.0,1.,12.0
1979-07-13 12:49:13.030 ,1,0,0.,12.0,0.,12.0,0.,12.0,1.,12.0
1979-07-13 12:49:25.030 ,1,0,,0,,0,,0,,0
1979-07-13 12:49:37.030 ,2,1,0.,12.0,0.,12.0,0.,12.0,0.,12.0
1979-07-13 12:49:49.030 ,2,1,0.,12.0,0.,12.0,0.,12.0,0.,12.0
1979-07-13 12:50:01.030 ,2,0,0.,12.0,0.,12.0,0.,12.0,0.,12.0
1979-07-13 12:50:13.030 ,2,0,0.,12.0,0.,12.0,0.,12.0,0.,12.0
1979-07-13 12:50:25.030 ,3,1,0.,12.0,0.,12.0,0.,12.0,0.,12.0
1979-07-13 12:50:37.030 ,3,1,0.,12.0,0.,12.0,0.,12.0,0.,12.0
1979-07-13 12:50:49.030 ,3,0,0.,12.0,0.,12.0,0.,12.0,0.,12.0
1979-07-13 12:51:01.030 ,3,0,0.,12.0,0.,12.0,0.,12.0,0.,12.0
1979-07-13 12:51:13.030 ,4,1,0.,12.0,0.,12.0,0.,12.0,0.,12.0
1979-07-13 12:51:25.030 ,4,1,1.,12.0,0.,12.0,0.,12.0,0.,12.0
1979-07-13 12:51:37.030 ,4,0,0.,12.0,0.,12.0,0.,12.0,0.,12.0
1979-07-13 12:51:49.030 ,4,0,0.,12.0,0.,12.0,0.,12.0,0.,12.0
1979-07-13 12:52:01.030 ,5,1,0.,12.0,0.,12.0,0.,12.0,0.,12.0
1979-07-13 12:52:13.030 ,5,1,0.,12.0,0.,12.0,0.,12.0,0.,12.0
1979-07-13 12:52:25.030 ,5,0,0.,12.0,0.,12.0,0.,12.0,0.,12.0
1979-07-13 12:52:37.030 ,5,0,0.,12.0,0.,12.0,0.,12.0,1.,12.0
1979-07-13 12:52:49.030 ,6,1,0.,12.0,0.,12.0,0.,12.0,0.,12.0
1979-07-13 12:53:01.030 ,6,1,0.,12.0,0.,12.0,0.,12.0,0.,12.0
1979-07-13 12:53:13.030 ,6,0,0.,12.0,0.,12.0,0.,12.0,0.,12.0
1979-07-13 12:53:25.030 ,6,0,0.,12.0,0.,12.0,0.,12.0,0.,12.0
1979-07-13 12:53:37.030 ,7,1,0.,12.0,0.,12.0,0.,12.0,0.,12.0
1979-07-13 12:53:49.030 ,7,1,0.,12.0,0.,12.0,0.,12.0,1.,12.0
1979-07-13 12:54:01.030 ,7,0,0.,12.0,0.,12.0,0.,12.0,0.,12.0
1979-07-13 12:54:13.030 ,7,0,0.,12.0,0.,12.0,0.,12.0,0.,12.0
1979-07-13 12:54:25.030 ,7,1,0.,12.0,0.,12.0,0.,12.0,0.,12.0
1979-07-13 12:54:37.030 ,7,1,0.,12.0,0.,12.0,0.,12.0,1.,12.0
1979-07-13 12:54:49.030 ,7,0,0.,12.0,0.,12.0,0.,12.0,0.,12.0
1979-07-13 12:55:01.030 ,7,0,0.,12.0,0.,12.0,0.,12.0,0.,12.0
1979-07-13 12:55:13.030 ,6,1,0.,12.0,0.,12.0,0.,12.0,0.,12.0
1979-07-13 12:55:25.030 ,6,1,0.,12.0,0.,12.0,0.,12.0,0.,12.0
1979-07-13 12:55:37.030 ,6,0,0.,12.0,0.,12.0,0.,12.0,0.,12.0
1979-07-13 12:55:49.030 ,6,0,0.,12.0,0.,12.0,0.,12.0,0.,12.0
1979-07-13 12:56:01.030 ,5,1,0.,12.0,0.,12.0,0.,12.0,0.,12.0
1979-07-13 12:56:13.030 ,5,1,0.,12.0,0.,12.0,0.,12.0,0.,12.0
1979-07-13 12:56:25.030 ,5,0,0.,12.0,0.,12.0,0.,12.0,0.,12.0
1979-07-13 12:56:37.030 ,5,0,0.,12.0,0.,12.0,0.,12.0,0.,12.0
1979-07-13 12:56:49.030 ,4,1,0.,12.0,0.,12.0,0.,12.0,0.,12.0
1979-07-13 12:57:01.030 ,4,1,1.,12.0,0.,12.0,0.,12.0,0.,12.0
1979-07-13 12:57:13.030 ,4,0,0.,12.0,0.,12.0,0.,12.0,0.,12.0
1979-07-13 12:57:25.030 ,4,0,0.,12.0,0.,12.0,0.,12.0,0.,12.0
1979-07-13 12:57:37.030 ,3,1,0.,12.0,0.,12.0,0.,12.0,1.,12.0
1979-07-13 12:57:49.030 ,3,1,1.,12.0,0.,12.0,0.,12.0,0.,12.0
1979-07-13 12:58:01.030 ,3,0,0.,12.0,0.,12.0,0.,12.0,0.,12.0
1979-07-13 12:58:13.030 ,3,0,1.,12.0,0.,12.0,0.,12.0,0.,12.0
1979-07-13 12:58:25.030 ,2,1,0.,12.0,0.,12.0,0.,12.0,0.,12.0
1979-07-13 12:58:37.030 ,2,1,0.,12.0,0.,12.0,0.,12.0,0.,12.0
1979-07-13 12:58:49.030 ,2,0,0.,12.0,0.,12.0,0.,12.0,0.,12.0
1979-07-13 12:59:01.030 ,2,0,0.,12.0,0.,12.0,0.,12.0,0.,12.0
1979-07-13 12:59:13.030 ,1,1,0.,12.0,0.,12.0,0.,12.0,0.,12.0
1979-07-13 12:59:25.030 ,1,1,0.,12.0,0.,12.0,0.,12.0,0.,12.0
1979-07-13 12:59:37.030 ,1,0,0.,12.0,0.,12.0,0.,12.0,0.,12.0
1979-07-13 12:59:49.030 ,1,0,0.,12.0,0.,12.0,0.,12.0,0.,12.0
1979-07-13 13:00:01.030 ,0,1,0.,12.0,0.,12.0,0.,12.0,0.,12.0
1979-07-13 13:00:13.030 ,0,1,0.,12.0,0.,12.0,0.,12.0,0.,12.0
1979-07-13 13:00:25.030 ,0,0,0.,12.0,0.,12.0,0.,12.0,1.,12.0
1979-07-13 13:00:37.030 ,0,0,1.,12.0,0.,12.0,0.,12.0,0.,12.0
1979-07-13 13:00:49.030 ,0,1,0.,12.0,0.,12.0,0.,12.0,0.,12.0
1979-07-13 13:01:01.030 ,0,1,1.,12.0,0.,12.0,0.,12.0,0.,12.0
1979-07-13 13:01:13.030 ,0,0,0.,12.0,0.,12.0,0.,12.0,0.,12.0
1979-07-13 13:01:25.030 ,0,0,0.,12.0,0.,12.0,0.,12.0,0.,12.0
1979-07-13 13:01:37.030 ,1,1,0.,12.0,0.,12.0,0.,12.0,0.,12.0
1979-07-13 13:01:49.030 ,1,1,1.,12.0,0.,12.0,0.,12.0,0.,12.0
1979-07-13 13:02:01.030 ,0,0,0.,12.0,0.,12.0,0.,12.0,0.,12.0
1979-07-13 13:02:13.030 ,0,0,0.,12.0,0.,12.0,0.,12.0,0.,12.0
1979-07-13 13:02:44.830 ,0,0,,0,,0,,0,,0
1979-07-13 13:02:56.830 ,0,0,,0,,0,,0,,0
1979-07-13 13:02:49.030 ,0,0,0.,12.0,0.,12.0,0.,12.0,0.,12.0
1979-07-13 13:03:01.030 ,0,0,0.,12.0,0.,12.0,0.,12.0,0.,12.0
1979-07-13 13:03:13.030 ,3,1,0.,12.0,0.,12.0,0.,12.0,0.,12.0
1979-07-13 13:03:25.030 ,3,1,0.,12.0,0.,12.0,0.,12.0,0.,12.0
1979-07-13 13:03:37.030 ,3,0,2.,12.0,0.,12.0,0.,12.0,0.,12.0
1979-07-13 13:03:49.030 ,3,0,0.,12.0,0.,12.0,0.,12.0,0.,12.0
1979-07-13 13:04:01.030 ,4,1,0.,12.0,0.,12.0,0.,12.0,0.,12.0
1979-07-13 13:04:13.030 ,4,1,1.,12.0,0.,12.0,0.,12.0,0.,12.0
1979-07-13 13:04:25.030 ,4,0,0.,12.0,0.,12.0,0.,12.0,0.,12.0
1979-07-13 13:04:37.030 ,4,0,0.,12.0,0.,12.0,0.,12.0,0.,12.0
1979-07-13 13:04:49.030 ,5,1,0.,12.0,0.,12.0,0.,12.0,0.,12.0
1979-07-13 13:05:01.030 ,5,1,0.,12.0,0.,12.0,0.,12.0,1.,12.0
1979-07-13 13:05:13.030 ,5,0,0.,12.0,0.,12.0,0.,12.0,0.,12.0
1979-07-13 13:05:25.030 ,5,0,0.,12.0,0.,12.0,0.,12.0,0.,12.0
1979-07-13 13:05:37.030 ,6,1,0.,12.0,0.,12.0,0.,12.0,0.,12.0
1979-07-13 13:05:49.030 ,6,1,1.,12.0,0.,12.0,0.,12.0,0.,12.0
1979-07-13 13:06:01.030 ,6,0,0.,12.0,0.,12.0,0.,12.0,0.,12.0
1979-07-13 13:06:13.030 ,6,0,0.,12.0,0.,12.0,0.,12.0,0.,12.0
1979-07-13 13:06:25.030 ,7,0,0.,12.0,0.,12.0,0.,12.0,0.,12.0
1979-07-13 13:06:37.030 ,7,0,0.,12.0,0.,12.0,0.,12.0,0.,12.0
1979-07-13 13:06:49.030 ,7,0,0.,12.0,0.,12.0,0.,12.0,0.,12.0
1979-07-13 13:07:01.030 ,7,0,0.,12.0,0.,12.0,0.,12.0,0.,12.0
1979-07-13 13:07:13.030 ,4,1,0.,12.0,0.,12.0,0.,12.0,1.,12.0
1979-07-13 13:07:25.030 ,4,1,1.,12.0,0.,12.0,0.,12.0,0.,12.0
1979-07-13 13:07:37.030 ,0,1,0.,12.0,0.,12.0,0.,12.0,0.,12.0
1979-07-13 13:07:49.030 ,0,1,0.,12.0,0.,12.0,0.,12.0,0.,12.0
1979-07-13 13:08:01.030 ,3,1,0.,12.0,0.,12.0,0.,12.0,0.,12.0
1979-07-13 13:08:13.030 ,3,1,1.,12.0,0.,12.0,0.,12.0,0.,12.0
1979-07-13 13:08:25.030 ,7,1,0.,12.0,0.,12.0,0.,12.0,0.,12.0
1979-07-13 13:08:37.030 ,7,1,0.,12.0,0.,12.0,0.,12.0,0.,12.0
1979-07-13 13:08:49.030 ,4,1,0.,12.0,0.,12.0,0.,12.0,0.,12.0
1979-07-13 13:09:01.030 ,4,1,1.,12.0,0.,12.0,0.,12.0,0.,12.0
1979-07-13 13:09:13.030 ,0,1,0.,12.0,0.,12.0,0.,12.0,0.,12.0
1979-07-13 13:09:25.030 ,0,1,1.,12.0,0.,12.0,0.,12.0,0.,12.0
1979-07-13 13:09:37.030 ,3,1,0.,12.0,0.,12.0,0.,12.0,0.,12.0
1979-07-13 13:09:49.030 ,3,1,0.,12.0,0.,12.0,0.,12.0,0.,12.0
1979-07-13 13:10:01.030 ,7,1,1.,12.0,0.,12.0,0.,12.0,0.,12.0
1979-07-13 13:10:13.030 ,7,1,0.,12.0,0.,12.0,0.,12.0,0.,12.0
1979-07-13 13:10:25.030 ,4,1,0.,12.0,0.,12.0,0.,12.0,0.,12.0
1979-07-13 13:10:37.030 ,4,1,1.,12.0,0.,12.0,0.,12.0,0.,12.0
1979-07-13 13:10:49.030 ,0,1,0.,12.0,0.,12.0,0.,12.0,0.,12.0
1979-07-13 13:11:01.030 ,0,1,0.,12.0,0.,12.0,0.,12.0,0.,12.0
1979-07-13 13:11:13.030 ,3,1,0.,12.0,0.,12.0,0.,12.0,0.,12.0
1979-07-13 13:11:25.030 ,3,1,0.,12.0,0.,12.0,0.,12.0,0.,12.0
1979-07-13 13:11:37.030 ,7,1,0.,12.0,0.,12.0,0.,12.0,0.,12.0
1979-07-13 13:11:49.030 ,7,1,1.,12.0,0.,12.0,0.,12.0,0.,12.0
1979-07-13 13:12:01.030 ,4,1,0.,12.0,0.,12.0,0.,12.0,0.,12.0
1979-07-13 13:12:13.030 ,4,1,0.,12.0,0.,12.0,0.,12.0,0.,12.0
1979-07-13 13:12:25.030 ,0,1,0.,12.0,0.,12.0,0.,12.0,0.,12.0
1979-07-13 13:12:37.030 ,0,1,0.,12.0,0.,12.0,0.,12.0,0.,12.0
1979-07-13 13:12:49.030 ,3,1,0.,12.0,0.,12.0,0.,12.0,0.,12.0
1979-07-13 13:13:01.030 ,3,1,0.,12.0,0.,12.0,0.,12.0,0.,12.0
1979-07-13 13:13:13.030 ,7,1,0.,12.0,0.,12.0,0.,12.0,0.,12.0
1979-07-13 13:13:25.030 ,7,1,0.,12.0,0.,12.0,0.,12.0,0.,12.0
1979-07-13 13:13:37.030 ,4,1,0.,12.0,0.,12.0,0.,12.0,1.,12.0
1979-07-13 13:13:49.030 ,4,1,0.,12.0,0.,12.0,0.,12.0,0.,12.0
1979-07-13 13:14:01.030 ,0,1,0.,12.0,0.,12.0,0.,12.0,0.,12.0
1979-07-13 13:14:13.030 ,0,1,0.,12.0,0.,12.0,0.,12.0,1.,12.0
1979-07-13 13:14:25.030 ,3,1,0.,12.0,0.,12.0,0.,12.0,0.,12.0
1979-07-13 13:14:37.030 ,3,1,0.,12.0,0.,12.0,0.,12.0,1.,12.0
1979-07-13 13:14:49.030 ,7,1,0.,12.0,0.,12.0,0.,12.0,0.,12.0
1979-07-13 13:15:01.030 ,7,1,0.,12.0,0.,12.0,0.,12.0,0.,12.0
1979-07-13 13:15:13.030 ,4,1,0.,12.0,0.,12.0,0.,12.0,0.,12.0
1979-07-13 13:15:25.030 ,4,1,0.,12.0,0.,12.0,0.,12.0,0.,12.0
1979-07-13 13:15:37.030 ,0,1,0.,12.0,0.,12.0,0.,12.0,0.,12.0
1979-07-13 13:15:49.030 ,0,1,0.,12.0,0.,12.0,0.,12.0,0.,12.0
1979-07-13 13:16:01.030 ,3,1,0.,12.0,0.,12.0,0.,12.0,0.,12.0
1979-07-13 13:16:13.030 ,3,1,0.,12.0,0.,12.0,0.,12.0,0.,12.0
1979-07-13 13:16:25.030 ,7,1,0.,12.0,0.,12.0,0.,12.0,0.,12.0
1979-07-13 13:16:37.030 ,7,1,0.,12.0,0.,12.0,0.,12.0,0.,12.0
1979-07-13 13:16:49.030 ,4,1,0.,12.0,0.,12.0,0.,12.0,1.,12.0
1979-07-13 13:17:01.030 ,4,1,1.,12.0,0.,12.0,0.,12.0,0.,12.0
1979-07-13 13:17:13.030 ,0,1,0.,12.0,0.,12.0,0.,12.0,0.,12.0
1979-07-13 13:17:25.030 ,0,1,0.,12.0,0.,12.0,0.,12.0,0.,12.0
1979-07-13 13:17:37.030 ,0,0,0.,12.0,0.,12.0,0.,12.0,0.,12.0